Powrót do katalogu

FENGYUN 1C DEB

AktywnySSO
NORAD 31311·DEBRIS·🇨🇳 China

Wystrzelony May 10, 1999 z Taiyuan Satellite Launch Center

Loading…

Następne Przeloty (najbliższe 24 godziny)

TLE

ŚwieżeSource: Space-Track

Epoka: Sep 14, 2026, 05:11 UTC

1 31311U 99025BPP 26257.21629646  .00002229  00000-0  85066-3 0  9995
2 31311  98.8447 348.4030 0016848 359.8222  29.5210 14.31756981  1589

Śledź FENGYUN 1C DEB w czasie rzeczywistym z AllMySat

Download on the App Store